STARLINK-11371, 62879

Orbit data source: Space-Track

STARLINK-11371, 62879 is a payload satellite owned by SpaceX/Seattle (US) in LEO that was launched on Tue, 04 Feb 2025 UTC via an FALCON 9 launch vehicle from the Air Force Eastern Test Range (AFETR). Payload-class satellites include a variety of spacecraft equipped with specific instruments for various scientific and technological missions. These include communications satellites like Starlink; space stations such as the ISS; scientific satellites like the Hubble; Earth observation satellites from companies like Planet Labs, Umbra, and HawkEye 360; GPS; miniature CubeSats for education and research; and military/defense satellites.

Loading next visibility...
Identifier
62879, 2025-024A
Orbit
LEO
Country
Flag of USUS
Related business
Manufacturer
SpaceX/Seattle
Mission
Operational Commercial Communications
Bus & Motor
STARLINK V2MD, Unknown motor
Mass
960 kg wet, ~910 kg dry
Launch date (UTC)
2025-02-04 (7 months ago)
Launch vehicle
FALCON 9
Launch site
Air Force Eastern Test Range (AFETR)
Object type
Payload
Rocket body
Debris
Shape & HBR
Box + 2 Pan, 14.5 m
Radar Cross Section
36.964 m², Large (>1 m²)

Expand to show TLE details & history
Last TLE update: 19 hours ago

TLE from 19 hours ago
0 STARLINK-11371
1 62879U 25024A   25261.06351267  .00266620  00000-0  20070-2 0  9994
2 62879  43.0015 142.2915 0001593 283.3319  76.7371 15.70938926 36312
Epoch: 2025-09-18T01:31Z
TLE epoch observation values (Epoch: 2025-09-18T01:31:27.494Z)
Latitude
-0.00003°
Longitude
122.19643°
Altitude
355.738 km
Speed
7.698 km/s
True Right ascension
09h 29m 09s
True Declination
0° 00' 00"
Sunlit
Object was in daylight at epoch
Visualization orbit readout
Latitude
Unknown
Longitude
Unknown
Altitude
Unknown
Speed
Unknown
Apparent Right ascension
Unknown
Apparent Declination
Unknown
Sunlit
N/A
Visualization observer readout
Local Sidereal Time
13:03:03
Azimuth
Unknown
Elevation
Unknown
Doppler factor
Unknown
Orbital elements
Apogee altitude
359.267 km
Perigee altitude
357.121 km
Semi-major axis
6,736.331 km
Eccentricity
0.00016
Inclination
43.0015°
RAAN
142.2915°
Arg. of periapsis
283.3319°
True anomaly
76.75487°
Mean anomaly
76.7371°
Eccentric anomaly
76.74598°
Mean motion
3.92562 °/min
Orbital period
91.71 mins
BSTAR
0.002007
Loading maneuver chart data...
Computing Atmospheric mass density...
Loading historical data...
Loading historical data...
Loading historical data...
Loading historical data...
Loading historical data...
Loading historical data...
Loading historical data...

Documentation

Showing up to 5 results
|